Date String (YYYY-MM-DD hh:mm:ss) UTC,Instrument flags,absolute air pressure of the measurement (hPa),sample flow rate (lpm),inlet stack bypass flow (lpm),air temperature of the measurement (°C),ambient temperature measured by the external sensor (°C),aerosol sample conditioner tube jacket temperature (°C),OPC LED temperature (°C),internal box temperature (°C),relative humidity of the measurement (%),span deviation,mass concentration of particles derived from Lorenz-Mie calculation of OPC scattering (μg/m³),mass concentration of particles derived from Lorenz-Mie calculation of OPC scattering (μg/m³),mass concentration of particles derived from Lorenz-Mie calculation of OPC scattering (μg/m³)
DateTimeUTC,F1_M11,P_M11,Q1_M11,Q2_M11,T1_M11,T2_M11,T3_M11,T4_M11,T5_M11,U1_M11,ZSPAN_M11,X0_M11,X2_M11,X1_M11
2023-10-09 05:00:00,SystemResetWarning,0831.5,5.00,000.00,028.6,027.2,000.0,037.0,030.3,12.6,0000.0,0008.91,0002.85,0002.06
2023-10-09 05:01:00,SystemResetWarning,0831.5,5.00,000.00,028.6,027.2,000.0,037.0,030.3,12.5,0000.0,0008.71,0002.90,0002.09
2023-10-09 05:02:00,SystemResetWarning,0831.5,5.00,000.00,028.6,027.2,000.0,037.0,030.3,12.6,0000.0,0008.62,0002.86,0002.09
2023-10-09 05:03:00,SystemResetWarning,0831.5,5.00,000.00,028.6,027.3,000.0,037.0,030.3,12.5,0000.0,0008.60,0002.83,0002.10
2023-10-09 05:04:00,SystemResetWarning,0831.5,5.00,000.00,028.6,027.3,000.0,037.0,030.3,12.5,0000.0,0008.55,0002.83,0002.11
2023-10-09 05:05:00,SystemResetWarning,0831.5,5.00,000.00,028.6,027.3,000.0,037.1,030.3,12.5,0000.0,0008.54,0002.87,0002.12
2023-10-09 05:06:00,SystemResetWarning,0831.5,4.99,000.00,028.7,027.3,000.0,037.1,030.3,12.5,0000.0,0008.42,0002.92,0002.12
2023-10-09 05:07:00,SystemResetWarning,0831.5,5.00,000.00,028.7,027.4,000.0,037.1,030.3,12.5,0000.0,0008.21,0002.91,0002.13
2023-10-09 05:08:00,SystemResetWarning,0831.5,4.99,000.00,028.7,027.4,000.0,037.1,030.3,12.5,0000.0,0008.17,0002.91,0002.13
2023-10-09 05:09:00,SystemResetWarning,0831.5,5.00,000.00,028.7,027.4,000.0,037.1,030.4,12.5,0000.0,0008.14,0002.89,0002.13
2023-10-09 05:10:00,SystemResetWarning,0831.5,5.00,000.00,028.7,027.4,000.0,037.1,030.4,12.5,0000.0,0008.28,0002.85,0002.14
2023-10-09 05:11:00,SystemResetWarning,0831.5,5.00,000.00,028.7,027.4,000.0,037.2,030.4,12.4,0000.0,0007.38,0002.85,0002.16
2023-10-09 05:12:00,SystemResetWarning,0831.5,5.01,000.00,028.8,027.4,000.0,037.2,030.4,12.4,0000.0,0006.69,0002.77,0002.15
2023-10-09 05:13:00,SystemResetWarning,0831.5,5.01,000.00,028.8,027.5,000.0,037.2,030.4,12.4,0000.0,0005.64,0002.75,0002.13
2023-10-09 05:14:00,SystemResetWarning,0831.5,5.00,000.00,028.8,027.5,000.0,037.2,030.4,12.4,0000.0,0006.85,0002.76,0002.13
2023-10-09 05:15:00,SystemResetWarning,0831.5,5.00,000.00,028.8,027.5,000.0,037.2,030.5,12.4,0000.0,0007.79,0002.81,0002.14
2023-10-09 05:16:00,SystemResetWarning,0831.5,4.99,000.00,028.8,027.5,000.0,037.2,030.5,12.3,0000.0,0008.02,0002.84,0002.15
2023-10-09 05:17:00,SystemResetWarning,0831.5,5.00,000.00,028.8,027.5,000.0,037.2,030.5,12.3,0000.0,0007.96,0002.79,0002.16
2023-10-09 05:18:00,SystemResetWarning,0831.6,5.00,000.00,028.8,027.5,000.0,037.2,030.5,12.3,0000.0,0008.09,0002.85,0002.16
2023-10-09 05:19:00,SystemResetWarning,0831.6,5.00,000.00,028.8,027.5,000.0,037.2,030.5,12.4,0000.0,0008.07,0002.80,0002.16
2023-10-09 05:20:00,SystemResetWarning,0831.5,5.00,000.00,028.9,027.5,000.0,037.2,030.5,12.3,0000.0,0008.15,0002.82,0002.18
2023-10-09 05:21:00,SystemResetWarning,0831.6,5.00,000.00,028.9,027.5,000.0,037.3,030.5,12.3,0000.0,0008.04,0002.88,0002.19
2023-10-09 05:22:00,SystemResetWarning,0831.6,5.00,000.00,028.9,027.5,000.0,037.3,030.5,12.3,0000.0,0007.86,0002.86,0002.19
2023-10-09 05:23:00,SystemResetWarning,0831.5,5.00,000.00,028.9,027.5,000.0,037.3,030.5,12.3,0000.0,0007.97,0002.91,0002.20
2023-10-09 05:24:00,SystemResetWarning,0831.5,5.00,000.00,028.9,027.6,000.0,037.3,030.5,12.3,0000.0,0008.86,0002.99,0002.22
2023-10-09 05:25:00,SystemResetWarning,0831.6,4.99,000.00,028.9,027.6,000.0,037.3,030.5,12.3,0000.0,0009.93,0003.02,0002.23
2023-10-09 05:26:00,SystemResetWarning,0831.5,4.99,000.00,028.9,027.6,000.0,037.3,030.5,12.3,0000.0,0010.02,0003.04,0002.24
2023-10-09 05:27:00,SystemResetWarning,0831.5,4.99,000.00,028.9,027.6,000.0,037.3,030.5,12.3,0000.0,0010.36,0002.99,0002.23
2023-10-09 05:28:00,SystemResetWarning,0831.5,5.01,000.00,029.0,027.6,000.0,037.4,030.5,12.3,0000.0,0010.47,0003.03,0002.24
2023-10-09 05:29:00,SystemResetWarning,0831.5,5.01,000.00,029.0,027.6,000.0,037.4,030.6,12.3,0000.0,0010.62,0003.04,0002.22
2023-10-09 05:30:00,SystemResetWarning,0831.5,5.01,000.00,029.0,027.6,000.0,037.4,030.6,12.3,0000.0,0010.58,0003.06,0002.21
2023-10-09 05:31:00,SystemResetWarning,0831.7,5.00,000.00,029.0,027.6,000.0,037.4,030.6,12.3,0000.0,0010.70,0003.09,0002.21
2023-10-09 05:32:00,SystemResetWarning,0831.5,5.00,000.00,029.0,027.6,000.0,037.4,030.6,12.3,0000.0,0011.16,0003.11,0002.20
2023-10-09 05:33:00,SystemResetWarning,0831.5,5.00,000.00,029.0,027.6,000.0,037.4,030.6,12.3,0000.0,0011.38,0003.13,0002.20
2023-10-09 05:34:00,SystemResetWarning,0831.5,5.00,000.00,029.0,027.6,000.0,037.4,030.6,12.3,0000.0,0011.46,0003.15,0002.19
2023-10-09 05:35:00,SystemResetWarning,0831.5,5.00,000.00,029.0,027.6,000.0,037.4,030.6,12.3,0000.0,0011.08,0003.14,0002.18
2023-10-09 05:36:00,SystemResetWarning,0831.5,5.00,000.00,029.0,027.6,000.0,037.4,030.6,12.3,0000.0,0009.28,0003.17,0002.19
2023-10-09 05:37:00,SystemResetWarning,0831.5,4.99,000.00,029.0,027.6,000.0,037.4,030.7,12.3,0000.0,0008.67,0003.17,0002.18
2023-10-09 05:38:00,SystemResetWarning,0831.5,4.99,000.00,029.0,027.6,000.0,037.4,030.7,12.2,0000.0,0008.27,0003.18,0002.19
2023-10-09 05:39:00,SystemResetWarning,0831.5,4.99,000.00,029.0,027.7,000.0,037.4,030.7,12.2,0000.0,0009.06,0003.26,0002.19
2023-10-09 05:40:00,SystemResetWarning,0831.5,5.00,000.00,029.0,027.5,000.0,037.4,030.7,12.2,0000.0,0009.17,0003.25,0002.22
2023-10-09 05:41:00,SystemResetWarning,0831.5,5.00,000.00,029.0,025.6,000.0,037.4,030.5,12.2,0000.0,0009.10,0003.23,0002.23
2023-10-09 05:42:00,SystemResetWarning,0831.4,5.00,000.00,028.9,024.4,000.0,037.3,030.3,12.2,0000.0,0009.15,0003.26,0002.23
2023-10-09 05:43:00,SystemResetWarning,0831.5,5.02,000.00,028.8,024.3,000.0,037.2,030.0,12.3,0000.0,0009.97,0003.24,0002.24
2023-10-09 05:44:00,SystemResetWarning,0831.5,5.01,000.00,028.6,024.6,000.0,037.2,029.9,12.4,0000.0,0009.79,0003.26,0002.24
2023-10-09 05:45:00,SystemResetWarning,0831.4,5.00,000.00,028.6,025.0,000.0,037.2,029.9,12.5,0000.0,0009.93,0003.30,0002.25
2023-10-09 05:46:00,SystemResetWarning,0831.4,4.99,000.00,028.5,025.4,000.0,037.2,030.0,12.5,0000.0,0009.91,0003.32,0002.27
2023-10-09 05:47:00,SystemResetWarning,0831.4,5.00,000.00,028.5,025.7,000.0,037.2,030.0,12.6,0000.0,0009.92,0003.31,0002.27
2023-10-09 05:48:00,SystemResetWarning,0831.4,5.00,000.00,028.5,025.9,000.0,037.1,030.0,12.5,0000.0,0010.46,0003.33,0002.27
2023-10-09 05:49:00,SystemResetWarning,0831.5,5.00,000.00,028.5,026.2,000.0,037.1,030.0,12.6,0000.0,0010.65,0003.33,0002.27
2023-10-09 05:50:00,SystemResetWarning,0831.4,5.00,000.00,028.4,026.3,000.0,037.1,030.0,12.6,0000.0,0009.93,0003.31,0002.27
2023-10-09 05:51:00,SystemResetWarning,0831.5,5.00,000.00,028.4,026.5,000.0,037.1,030.1,12.6,0000.0,0009.27,0003.29,0002.27
2023-10-09 05:52:00,SystemResetWarning,0831.4,5.00,000.00,028.5,026.6,000.0,037.1,030.1,12.6,0000.0,0009.34,0003.29,0002.26
2023-10-09 05:53:00,SystemResetWarning,0831.4,5.00,000.00,028.5,026.7,000.0,037.0,030.1,12.6,0000.0,0009.46,0003.29,0002.28
2023-10-09 05:54:00,SystemResetWarning,0831.5,4.99,000.00,028.5,026.8,000.0,037.0,030.1,12.6,0000.0,0008.98,0003.28,0002.27
2023-10-09 05:55:00,SystemResetWarning,0831.4,5.00,000.00,028.5,026.9,000.0,037.0,030.2,12.6,0000.0,0008.74,0003.25,0002.27
2023-10-09 05:56:00,SystemResetWarning,0831.5,5.01,000.00,028.5,026.9,000.0,037.0,030.2,12.6,0000.0,0008.53,0003.22,0002.28
2023-10-09 05:57:00,SystemResetWarning,0831.4,5.01,000.00,028.5,027.0,000.0,037.0,030.2,12.6,0000.0,0008.60,0003.22,0002.27
2023-10-09 05:58:00,SystemResetWarning,0831.4,5.01,000.00,028.5,027.0,000.0,037.0,030.2,12.6,0000.0,0008.62,0003.24,0002.29
2023-10-09 05:59:00,SystemResetWarning,0831.4,5.01,000.00,028.5,027.1,000.0,037.0,030.2,12.6,0000.0,0008.17,0003.23,0002.29
